This demonstration page uses our WeatherBlox Daily Observations layout. Learn more.

Left ArrowRight Arrow

39.92423, -83.80882

Hourly Observations for August 7, 2021

Temp ( °F °C ) Dew Point ( °F °C ) Humidity (%) Winds ( mph kmh ) Pressure ( in mb ) Visibility ( mi km ) Precip ( " mm )
12:56 am 00:56 Clear 68 20 N/A N/A Calm 30.07 1018 10 16 0.00 0.00
1:56 am 01:56 Clear 68 20 N/A N/A SW 3 6 30.06 1018 10 16 0.00 0.00
2:56 am 02:56 Clear 66 19 N/A N/A SW 6 9 30.04 1017 9 14 0.00 0.00
3:56 am 03:56 Mostly Clear 68 20 N/A N/A SSW 3 6 30.05 1018 8 13 0.00 0.00
4:56 am 04:56 Cloudy 66 19 N/A N/A Calm 30.04 1017 8 13 0.00 0.00
5:56 am 05:56 Mostly Clear 66 19 N/A N/A W 3 6 30.05 1018 9 14 0.00 0.00
6:56 am 06:56 Sunny 66 19 N/A N/A SW 5 7 30.05 1018 9 14 0.00 0.00
7:56 am 07:56 Mostly Sunny 68 20 68 20 100 100 SW 3 6 30.06 1018 10 16 0.00 0.00
8:56 am 08:56 Mostly Cloudy 70 21.1 69 20.6 97 97 SSW 7 11 30.06 1018 10 16 0.00 0.00
9:56 am 09:56 Partly Cloudy 74 23.3 69 20.6 85 85 SW 6 9 30.07 1018 10 16 0.00 0.00
10:56 am 10:56 Partly Cloudy 75 23.9 68 20 79 79 WSW 6 9 30.08 1019 10 16 0.00 0.00
11:56 am 11:56 Mostly Sunny 79 26.1 69 20.6 72 72 W 5 7 30.08 1019 10 16 0.00 0.00
12:56 pm 12:56 Sunny 81 27.2 69 20.6 67 67 VRB 5 7 30.06 1018 10 16 0.00 0.00
1:56 pm 13:56 Mostly Sunny 83 28.3 69 20.6 63 63 WSW 3 6 30.05 1018 10 16 0.00 0.00
2:56 pm 14:56 Mostly Cloudy 81 27.2 71 21.7 72 72 SSW 3 6 30.04 1017 10 16 0.00 0.00
3:56 pm 15:56 Sunny 82 27.8 71 21.7 69 69 S 5 7 30.02 1017 10 16 0.00 0.00
4:42 pm 16:42 Cloudy with Nearby Thunderstorms 75 24 75 24 100 100 E 8 13 29.99 1015 4 6 0.02 0.51
4:53 pm 16:53 Cloudy with Nearby Thunderstorms 75 24 75 24 100 100 E 9 15 29.99 1015 10 16 0.03 0.76
4:56 pm 16:56 Cloudy with Nearby Thunderstorms 75 23.9 75 23.9 100 100 E 7 11 30.01 1016 10 16 0.03 0.76
5:56 pm 17:56 Cloudy with Thunderstorms 70 21 N/A N/A WNW 12 19 30.07 1018 6 10 0.03 0.76
6:00 pm 18:00 Cloudy with Strong Thunderstorms 70 21 N/A N/A VRB 5 7 30.05 1018 2 2 0.00 0.00
6:07 pm 18:07 Cloudy with Strong Thunderstorms 70 21 68 20 94 94 E 13 20 30.03 1017 1 2 0.02 0.51
6:12 pm 18:12 Cloudy with Thunderstorms 68 20 68 20 100 100 ESE 14 22 30.03 1017 2 3 0.03 0.76
6:20 pm 18:20 Cloudy with Thunderstorms 68 20 68 20 100 100 ESE 10 17 30.02 1017 10 16 0.04 1.02
6:43 pm 18:43 Cloudy 70 21 N/A N/A WSW 9 15 30.03 1017 10 16 0.08 2.03
6:56 pm 18:56 Mostly Cloudy 70 21 N/A N/A W 7 11 30.05 1018 10 16 0.10 2.54
7:56 pm 19:56 Sunny 70 21 N/A N/A S 7 11 30.04 1017 7 11 0.07 1.78
8:56 pm 20:56 Clear 66 19 N/A N/A SSW 3 6 30.04 1017 10 16 0.05 1.27
9:56 pm 21:56 Partly Cloudy 66 19 N/A N/A W 3 6 30.06 1018 10 16 0.05 1.27
10:56 pm 22:56 Partly Cloudy 66 19 N/A N/A WSW 5 7 30.04 1017 9 14 0.05 1.27
11:56 pm 23:56 Hazy 64 18 N/A N/A SSE 3 6 30.03 1017 4 6 0.04 1.02

Powered by AerisWeather